Miscellaneous Local Product
Issued by NWS North Platte, NE

Home | Current Version | Previous Version | Text Only | Print | Product List | Glossary On
Versions: 1 2 3 4 5 6 7 8 9 10 11 12 13 14 15 16 17 18 19 20 21 22 23 24 25 26 27 28 29 30 31 32 33 34 35 36 37 38 39 40 41 42 43 44 45 46 47 48 49 50
000
AXUS43 KLBF 231410
MISLBF


WESTERN AND NORTH CENTRAL NEBRASKA HOURLY WEATHER ROUNDUP
NATIONAL WEATHER SERVICE NORTH PLATTE NE
900 AM CDT SAT MAY 23 2015

***STATIONS NOT REPORTING VARIABLES SUCH AS SKY/WEATHER OR
PRESSURE ARE PROVIDED BY THE NEBRASKA DEPARTMENT OF
ROADS...RAWS...AND APRS NETWORKS...AND ARE NOT UNDER
NATIONAL WEATHER SERVICE QUALITY CONTROL***

...OBSERVATIONS IN AND NEAR THE EASTERN PANHANDLE OF NEBRASKA...

CITY           SKY/WX    TMP DP  RH WIND       PRES   REMARKS
PINE RIDGE     CLOUDY    51  46  83 E7        30.07R
CHADRON        CLOUDY    52  47  83 E10       30.04S
ALLIANCE       CLOUDY    50  50 100 SE9       30.03F
SIDNEY         FOG       50  50 100 SE7       30.03F VSB 3/4
WHITECLAY        N/A     48  45  88 E7          N/A
BIG SPRINGS      N/A     53  52  97 SE12        N/A
$$

...OBSERVATIONS IN NORTH CENTRAL NEBRASKA...

CITY           SKY/WX    TMP DP  RH WIND       PRES   REMARKS
VALENTINE      CLOUDY    52  51  97 SE7       30.10R FOG
THEDFORD       CLOUDY    54  54  98 SE12G18   30.10R FOG
AINSWORTH      CLOUDY    54  54 100 SE8       30.11R FOG
O`NEILL        CLOUDY    56  52  87 SE7       30.14R
ORD            CLOUDY    53  50  89 S10       30.15R
BROKEN BOW       N/A     53  52  96 SE10      30.12R FOG
VALENTINE NWR    N/A     52  52  99 SE9         N/A
SPRINGVIEW       N/A     53  51  95 SE3G12      N/A
ROSE             N/A     51  51  99 E14         N/A
NEWPORT          N/A     53  53  99 SE7         N/A
SARGENT          N/A     52  51  98 CALM        N/A
COMSTOCK         N/A     55  55  99 S8          N/A
EWING            N/A     57  54  89 SE3         N/A
$$

...OBSERVATIONS IN SOUTHWEST NEBRASKA AND FAR NORTHEAST COLORADO...

CITY           SKY/WX    TMP DP  RH WIND       PRES   REMARKS
WRAY           FOG      N/A N/A N/A SE9       30.02S VSB 1
IMPERIAL       CLOUDY    53  51  93 SE16G23   30.03F FOG
OGALLALA       CLOUDY    53  52  97 SE8       30.04F
NORTH PLATTE   CLOUDY    53  52  96 SE7       30.07S
MCCOOK         CLOUDY    54  53  97 SE9G18    30.05S
LEXINGTON      CLOUDY    55  54  97 SE9       30.10F FOG
PAXTON           N/A     53  52  97 SE8         N/A
GOTHENBURG       N/A     53  51  93 SE7         N/A
CALLAWAY         N/A     53  53  99 SE13        N/A
$$

...NORTH PLATTE AREA...

CITY           SKY/WX    TMP DP  RH WIND       PRES   REMARKS
AIRPORT        CLOUDY    53  52  96 SE7       30.07S
DOWNTOWN         N/A     53  51  95 SE6         N/A
$$

...SOME WEATHER OBSERVATIONS FROM AROUND THE REGION...

CITY           SKY/WX    TMP DP  RH WIND       PRES   REMARKS
DENVER         DRIZZLE   50  48  93 CALM      30.03F FOG
LARAMIE        PTSUNNY   43  39  86 S8        30.02S
CHEYENNE       PTSUNNY   46  43  89 S10       30.04R
SCOTTSBLUFF    CLOUDY    48  48 100 SE9       30.03R FOG
RAPID CITY     CLOUDY    49  45  86 SE13      30.06S
PIERRE         CLOUDY    52  48  86 E13       30.11F
WINNER         CLOUDY    53  50  89 SE12      30.11R FOG
SIOUX FALLS    CLOUDY    56  51  84 E9        30.19F
OMAHA          PTSUNNY   61  54  77 SE13      30.20F
GRAND ISLAND   CLOUDY    54  51  90 SE12      30.15R
KANSAS CITY    CLOUDY    60  54  80 SE9       30.22F
WICHITA        DRIZZLE   58  56  93 SE9       30.16R FOG
HAYS           CLOUDY    55  48  76 SE13      30.12S
LIBERAL        CLOUDY    57  54  88 S5        30.16R
GOODLAND       FOG       52  52 100 SE17G28   30.05S VSB 1
$$



USA.gov is the U.S. government's official web portal to all federal, state and local government web resources and services.